Home > Weather > Aqtobe > Past weeks

Flag for Kazakhstan Past Weather in Aqtobe, Kazakhstan — Yesterday and Last 2 Weeks

Now
84 °F

Scattered clouds.


Feels Like: 82 °F
Forecast: 60 / 83 °F
Wind: 1 mph from North

Location: Aktjubinsk

Current Time: May 29, 2016 at 2:48:18 PM

Latest Report: May 29, 2016 at 2:00 PM


Visibility: N/A

Pressure: 30.01 "Hg

Humidity: 33%

Dew Point: 52 °F

Location of AqtobeLocation

Past Weather in Aqtobe — Graph

°F

Aqtobe Temperature Yesterday

Maximum temperature yesterday: 86 °F (at 2:00 PM)
Minimum temperature yesterday: 54 °F (at 5:30 AM)
Average temperature yesterday: 73 °F

High & Low Weather Summary for the Past Weeks

 TemperatureHumidityPressure
High86 °F (May 26, 4:00 PM)100% (May 14, 1:00 PM)30.21 "Hg (May 14, 1:00 PM)
Low41 °F (May 15, 11:00 PM)19% (May 26, 5:00 PM)29.62 "Hg (May 14, 1:00 PM)
Average62 °F62%30.00 "Hg
* Reported May 14 1:00 PM — May 29 1:30 PM, Aqtobe, Weather by CustomWeather, © 2016

Note: Actual official high and low records may vary slightly from our data, if they occured in-between our weather recording intervals... More about our weather records

Advertising

Aqtobe Weather History for the Previous 24 Hours

Scroll right to see more
 ConditionsComfort  
Time TempWeatherWind HumidityBarometerVisibility
1:30 PM
Sun, May 29
86 °FPassing clouds.3 mph33%30.01 "HgN/A
1:00 PM84 °FPassing clouds.3 mph37%30.01 "HgN/A
12:30 PM84 °FPassing clouds.3 mph40%30.04 "HgN/A
12:00 PM82 °FPassing clouds.6 mph42%30.04 "HgN/A
11:30 AM82 °FPassing clouds.3 mph45%30.04 "HgN/A
11:00 AM81 °FPassing clouds.3 mph45%30.04 "HgN/A
10:30 AM79 °FClear.6 mph51%30.04 "Hg5 mi
10:00 AM77 °FClear.3 mph54%30.04 "Hg5 mi
9:30 AM75 °FClear.3 mph57%30.04 "Hg4 mi
9:00 AM72 °FClear.3 mph61%30.04 "Hg4 mi
8:30 AM72 °FClear.3 mph61%30.04 "Hg4 mi
8:00 AM70 °FClear.1 mph69%30.04 "HgN/A
7:30 AM66 °FClear.1 mph78%30.04 "Hg5 mi
7:00 AM64 °FClear.No wind88%30.04 "Hg4 mi
6:30 AM59 °FClear.3 mph100%30.04 "Hg5 mi
6:00 AM57 °FClear.3 mph100%30.04 "Hg4 mi
5:30 AM55 °FClear.3 mph100%30.04 "Hg4 mi
5:00 AM57 °FClear.3 mph100%30.01 "Hg4 mi
4:30 AM57 °FClear.1 mph100%30.04 "Hg4 mi
4:00 AM59 °FClear.1 mph100%30.01 "Hg4 mi
3:30 AM61 °FClear.1 mph94%30.01 "HgN/A
3:00 AM61 °FClear.3 mph100%30.01 "Hg4 mi
2:30 AM61 °FClear.1 mph100%30.01 "HgN/A
2:00 AM63 °FClear.3 mph88%30.01 "HgN/A
1:30 AM63 °FClear.1 mph94%30.01 "Hg10 mi
1:00 AM64 °FClear.3 mph88%30.01 "Hg10 mi
12:30 AM64 °FClear.3 mph88%30.01 "Hg10 mi
12:00 AM66 °FClear.3 mph83%30.01 "Hg10 mi
11:30 PM
Sat, May 28
68 °FClear.3 mph83%30.01 "Hg10 mi
11:00 PM70 °FClear.3 mph73%30.01 "Hg10 mi
10:30 PM68 °FClear.3 mph78%30.01 "Hg10 mi
10:00 PM72 °FClear.3 mph83%30.01 "Hg10 mi
9:30 PM73 °FClear.8 mph74%30.01 "Hg10 mi
9:00 PM75 °FPartly sunny.6 mph69%30.01 "HgN/A
8:30 PM79 °FPartly sunny.6 mph61%30.01 "HgN/A
8:00 PM81 °FPartly sunny.3 mph54%30.01 "HgN/A
7:30 PM82 °FPartly sunny.6 mph48%30.01 "HgN/A
7:00 PM84 °FBroken clouds.6 mph40%30.01 "HgN/A
6:30 PM84 °FThundershowers. Broken clouds.8 mph37%30.01 "HgN/A
6:00 PM84 °FThundershowers. Broken clouds.8 mph37%30.01 "HgN/A
5:30 PM84 °FBroken clouds.8 mph35%30.01 "HgN/A
5:00 PM84 °FBroken clouds.3 mph35%30.01 "HgN/A
4:30 PM86 °FBroken clouds.6 mph38%30.01 "HgN/A
4:00 PM84 °FBroken clouds.3 mph40%30.04 "HgN/A
3:30 PM84 °FPartly sunny.8 mph33%30.04 "HgN/A
3:00 PM86 °FPassing clouds.3 mph35%30.04 "HgN/A
2:30 PM86 °FSunny.3 mph33%30.04 "Hg10 mi
2:00 PM86 °FPassing clouds.6 mph33%30.04 "HgN/A
Weather by CustomWeather, © 2016

See weather overviewHow to use our weather pages